Location: Newark
(52.4787°S, 179.0532°W)
Time: 11:38:05
(UTC+00:00)

Transit 2A Rocket - Pass Details

Date: 21 November 2019
Orbit: 594 x 909 km, 66.7° (Epoch: 07 December)

Event Time Altitude Azimuth Distance (km) Brightness Sun altitude
Rises 20:17:02 0° 357° (N) 3,319 8.5 39.0°
Reaches altitude 10° 20:19:36 10° 7° (N) 2,442 8.0 39.4°
Maximum altitude 20:24:35 32° 68° (ENE) 1,456 9.2 40.1°
Drops below altitude 10° 20:29:52 10° 128° (SE) 2,599 8.2 40.8°
Sets 20:32:41 0° 137° (SE) 3,564 8.7 41.2°
